Showing default

QPS-SAR-12 KUSHINADA-I, 65116

Orbit data source: Space-Track

QPS-SAR-12 KUSHINADA-I, 65116 is a payload satellite owned by QPS Labs (JP) in LEO that was launched on Tue, 05 Aug 2025 UTC via an ELECTRON launch vehicle from the Rocket Lab Launch Complex (RLLC). Payload-class satellites include a variety of spacecraft equipped with specific instruments for various scientific and technological missions. These include communications satellites like Starlink; space stations such as the ISS; scientific satellites like the Hubble; Earth observation satellites from companies like Planet Labs, Umbra, and HawkEye 360; GPS; miniature CubeSats for education and research; and military/defense satellites.

Loading next visibility...
Identifier
65116, 2025-169A
Orbit
LEO
Country
Flag of JPJP / JPN
Related business
Manufacturer
QPS Labs
Mission
Operational Commercial Radar Imaging
Bus & Motor
QSAT, Unknown motor
Mass
~120 kg wet, ~100 kg dry
Launch date (UTC)
2025-08-05 (10 months ago)
Launch vehicle
ELECTRON
Launch site
Rocket Lab Launch Complex (RLLC)
Object type
Payload
Rocket body
Debris
Shape & HBR
Hex Cyl + 2 Pan + 1 Dish, 14.5 m
Radar Cross Section
1.179 m², Large (>1 m²)

Expand to show TLE details & history
Last TLE update: 21 hours ago

TLE from 21 hours ago
0 QPS-SAR-12 KUSHINADA-I
1 65116U 25169A   26170.96680455  .00003677  00000-0  29833-3 0  9992
2 65116  42.0125   0.6777 0008383 239.4771 120.5228 15.00869415 47838
Epoch: 2026-06-19T23:12Z
TLE epoch observation values (Epoch: 2026-06-19T23:12:11.913Z)
Latitude
0.00001°
Longitude
104.43988°
Altitude
566.842 km
Speed
7.578 km/s
True Right ascension
00h 02m 42s
True Declination
0° 00' 00"
Sunlit
Object was in daylight at epoch
Visualization orbit readout
Latitude
Unknown
Longitude
Unknown
Altitude
Unknown
Speed
Unknown
Apparent Right ascension
Unknown
Apparent Declination
Unknown
Sunlit
N/A
Visualization observer readout
Local Sidereal Time
07:21:38
Azimuth
Unknown
Elevation
Unknown
Doppler factor
Unknown
Orbital elements
Apogee altitude
572.122 km
Perigee altitude
560.478 km
Semi-major axis
6,944.437 km
Eccentricity
0.00084
Inclination
42.0125°
RAAN
0.6777°
Arg. of periapsis
239.4771°
True anomaly
120.60551°
Mean anomaly
120.5228°
Eccentric anomaly
120.56416°
Mean motion
3.75049 °/min
Orbital period
95.99 mins
BSTAR
0.00029833
Loading maneuver chart data...
Computing Atmospheric mass density...
Loading historical data...
Loading historical data...
Loading historical data...
Loading historical data...
Loading historical data...
Loading historical data...
Loading historical data...
Other satellites on launch #169 in the year 2025 (2025-08-05 UTC)

Documentation

Showing up to 5 results
|